Regional Weather Roundup
Issued by NWS

Home | Current Version | Previous Version | Graphics & Text | Print | Product List | Glossary On
Versions: 1 2 3 4 5 6 7 8 9 10 11 12 13 14 15 16 17 18 19 20 21 22 23 24 25 26 27 28 29 30 31 32 33 34 35 36 37 38 39 40 41 42 43 44 45 46 47 48 49 50
000
ASUS43 KLMK 290810
RWRKY
KENTUCKY REGIONAL WEATHER ROUNDUP
NATIONAL WEATHER SERVICE LOUISVILLE KY
400 AM EDT SAT AUG 29 2015

NOTE "FAIR" INDICATES FEW OR NO CLOUDS BELOW 12,000 FEET
WITH NO SIGNIFICANT WEATHER AND/OR OBSTRUCTIONS TO VISIBILITY.

KYZ001>023-026-027-061>063-070>075-290900-
WESTERN AND SOUTH CENTRAL KENTUCKY

CITY           SKY/WX    TMP DP  RH WIND       PRES   REMARKS
PADUCAH        CLOUDY    70  65  84 S3        30.03S
HENDERSON      CLOUDY    68  63  83 SE3       30.04S
OWENSBORO      CLEAR     69  66  90 SE6       30.07R
HOPKINSVILLE   PTCLDY    71  65  82 SE5       30.06S
BOWLING GREEN  PTCLDY    67  63  87 CALM      30.09S
GLASGOW        CLEAR     68  64  87 CALM      30.11S
$$

KYZ024-025-028>034-038-045-046-053-290900-
NORTH CENTRAL KENTUCKY

CITY           SKY/WX    TMP DP  RH WIND       PRES   REMARKS
LOUISVILLE/SDF MOCLDY    70  62  76 SE6       30.08S
LOUISVILLE/LOU PTCLDY    71  62  73 SE3       30.09S
FORT KNOX      PTCLDY    66  62  87 CALM      30.08S
$$

KYZ035>037-039>044-047>052-055>060-089>105-290900-
NORTHEAST KENTUCKY

CITY           SKY/WX    TMP DP  RH WIND       PRES   REMARKS
LEXINGTON      CLEAR     68  62  81 SE7       30.13S
COVINGTON      CLOUDY    68  59  73 CALM      30.11S
FRANKFORT      CLEAR     63  59  87 CALM      30.11S
$$

KYZ054-064>069-076>088-106>120-290900-
SOUTHEAST KENTUCKY

CITY           SKY/WX    TMP DP  RH WIND       PRES   REMARKS
JACKSON        MOCLDY    68  61  78 SE3       30.16S
LONDON         MOCLDY    66  61  84 CALM      30.16R
SOMERSET       CLEAR     63  63 100 CALM      30.15S
MIDDLESBORO    MOCLDY    61  61  99 CALM      30.18R
MONTICELLO     SUNNY     60  60 100 CALM      30.17S
$$



USA.gov is the U.S. government's official web portal to all federal, state and local government web resources and services.